Regional Weather Roundup
Issued by NWS

Home | Current Version | Previous Version | Graphics & Text | Print | Product List | Glossary On
Versions: 1 2 3 4 5 6 7 8 9 10 11 12 13 14 15 16 17 18 19 20 21 22 23 24 25 26 27 28 29 30 31 32 33 34 35 36 37 38 39 40 41 42 43 44 45 46 47 48 49 50
000
ASUS44 KMEG 281400
RWRTN
TENNESSEE HOURLY STATE WEATHER ROUNDUP
NATIONAL WEATHER SERVICE MEMPHIS TN
800 AM CST SAT FEB 28 2015

TNZ002-004-019-021-049-052-054-088>092-281500-
WEST TENNESSEE

CITY           SKY/WX    TMP DP  RH WIND       PRES   REMARKS
MEMPHIS INTL   CLOUDY    31  14  49 NE10      30.55R WCI  22
NWS MEMPHIS      N/A     29 N/A N/A MISG        N/A
JACKSON        CLOUDY    28  13  53 NE9       30.58R WCI  19
DYERSBURG      CLOUDY    25   7  46 NE10G17   30.61S WCI  15
UNION CITY     CLOUDY    19  16  86 NE8       30.61R WCI   9
PARIS          CLOUDY    21  10  63 NE9       30.60S WCI  11
LEXINGTON      CLOUDY    27   9  46 N8        30.57R WCI  18
SAVANNAH       CLOUDY    28  10  47 E7        30.56S WCI  21
$$

TNZ008-025-027-028-033-062-065-066-281500-
NORTH MIDDLE TENNESSEE

CITY           SKY/WX    TMP DP  RH WIND       PRES   REMARKS
NASHVILLE      CLOUDY    27  12  53 NE7       30.61R WCI  19
CLARKSVILLE    CLOUDY    24  12  60 NE9       30.63R WCI  14
COOKEVILLE     PTSUNNY   27  16  63 N3        30.57R
CROSSVILLE     CLOUDY    27  15  61 E5        30.53R WCI  22
$$

TNZ061-075-076-078-094-096-097-281500-
SOUTH MIDDLE TENNESSEE

CITY           SKY/WX    TMP DP  RH WIND       PRES   REMARKS
FAYETTEVILLE   MOSUNNY   27  16  63 NE6         N/A  WCI  20
TULLAHOMA      PTSUNNY   27  14  59 CALM      30.55R
WINCHESTER     PTSUNNY   30  18  59 E7        30.55R WCI  23
COLUMBIA         N/A     27  12  54 NE7       30.57R WCI  19
SHELBYVILLE    CLOUDY    28  16  59 N5        30.58R WCI  23
$$

TNZ017-018-042-046-047-281500-
NORTHEAST TENNESSEE

CITY           SKY/WX    TMP DP  RH WIND       PRES   REMARKS
TRI CITIES     PTSUNNY   22  12  65 E5        30.60R WCI  16
ELIZABETHTON   SUNNY     25  18  74 E5        30.58S WCI  19
$$

TNZ012-013-036-069-073-074-281500-
CENTRAL EAST TENNESSEE

CITY           SKY/WX    TMP DP  RH WIND       PRES   REMARKS
KNOXVILLE      PTSUNNY   26  15  63 NE9       30.59R WCI  17
OAK RIDGE      CLOUDY    29  14  53 NE5       30.61R WCI  24
GATLINBURG     SUNNY     25  16  68 CALM      30.59R
$$

TNZ083-085-099-281500-
SOUTHEAST TENNESSEE

CITY           SKY/WX    TMP DP  RH WIND       PRES   REMARKS
CHATTANOOGA    PTSUNNY   31  15  52 N8        30.60R WCI  23
$$

SKY/WX REPORTED AS FAIR MEANS FEW OR NO CLOUDS BELOW
12 THOUSAND FEET.



USA.gov is the U.S. government's official web portal to all federal, state and local government web resources and services.